This is the latest recevied weather packets stored in our database for station/object SR8WXE. If no packets are shown the sender has not sent any weather packets the latest 1 day(s).
| Time | Temp. | Humidity | Pressure | Rain* | Wind** | Luminosity | Snow |
|---|---|---|---|---|---|---|---|
| 1778052102 | 20.56° C | 36% | 1008.5 hPa | 0 mm | - | - | - |
| 1778051802 | 20.56° C | 37% | 1008.5 hPa | 0 mm | - | - | - |
| 1778051502 | 20° C | 36% | 1008.5 hPa | 0 mm | - | - | - |
| 1778050901 | 20° C | 38% | 1008.4 hPa | 0 mm | - | - | - |
| 1778050601 | 19.44° C | 39% | 1008.3 hPa | 0 mm | - | - | - |
| 1778049700 | 18.33° C | 41% | 1008.4 hPa | 0 mm | - | - | - |
| 1778049400 | 18.33° C | 41% | 1008.4 hPa | 0 mm | - | - | - |
| 1778048799 | 18.33° C | 41% | 1008.5 hPa | 0 mm | - | - | - |
| 1778048499 | 18.33° C | 41% | 1008.5 hPa | 0 mm | - | - | - |
| 1778047898 | 18.33° C | 41% | 1008.5 hPa | 0 mm | - | - | - |
| 1778047598 | 18.33° C | 41% | 1008.6 hPa | 0 mm | - | - | - |
| 1778047298 | 18.33° C | 41% | 1008.7 hPa | 0 mm | - | - | - |
| 1778046997 | 17.78° C | 39% | 1008.7 hPa | 0 mm | - | - | - |
| 1778046697 | 17.78° C | 41% | 1008.8 hPa | 0 mm | - | - | - |
| 1778046397 | 17.78° C | 40% | 1008.9 hPa | 0 mm | - | - | - |
| 1778045796 | 18.33° C | 39% | 1008.9 hPa | 0 mm | - | - | - |
| 1778045496 | 18.33° C | 39% | 1008.9 hPa | 0 mm | - | - | - |
| 1778045196 | 18.33° C | 39% | 1008.9 hPa | 0 mm | - | - | - |
| 1778044595 | 18.33° C | 38% | 1008.8 hPa | 0 mm | - | - | - |
| 1778044295 | 18.33° C | 40% | 1008.9 hPa | 0 mm | - | - | - |
| 1778043394 | 18.33° C | 39% | 1008.7 hPa | 0 mm | - | - | - |
| 1778043094 | 18.33° C | 39% | 1008.7 hPa | 0 mm | - | - | - |
| 1778042793 | 18.33° C | 40% | 1008.8 hPa | 0 mm | - | - | - |
| 1778042493 | 17.78° C | 40% | 1008.7 hPa | 0 mm | - | - | - |
| 1778042193 | 17.22° C | 42% | 1008.7 hPa | 0 mm | - | - | - |
* Rain latest hour (hover to see other rain measurements)
** Current wind speed in m/s (hover to see current wind gust speed)